Weather in Luknovo

Russia / Vladimir Oblast     56°10′35″N   42°02′28″E
temp.,
°C
wind,
m/s
gust,
m/s
humid.,
%
clouds,
%
prec.,
mm/h
press.,
hPa
HPBL,
m
27 february, sat
sat2700:00+1w51297100 0.3 995659
03:000w51197100 1.1 996682
06:00−5nw61193100 0.8 998510
09:00−11n61091100 1.2 1002591
12:00−11n5887100 0.1 1006639
15:00−10n4887100 0.1 1009659
18:00−11nnw3894100 0.1 1010487
21:00−13nnw3697100 0.1 1012154
28 february, sun
sun2800:00−15nnw239792 0.0 101279
03:00−16nnw239780 0.1 101460
06:00−16nnw239785 0.0 101593
09:00−14nnw249384 0.1 1015242
12:00−10nnw248694 0.0 1015473
15:00−8nnw248897 0.1 1016538
18:00−9nnw2294100 0.1 101768
21:00−10n2296100 0.1 101940
1 march, mon
mon100:00−12nnw129798 0.0 102021
03:00−13w119796 0.1 102221
06:00−12w229790 0.0 102221
09:00−9wsw129585 0.1 1023105
12:00−4wsw248977 0.0 1022417
15:00−2wsw478888 0.1 1020674
18:00−3wsw41092100 0.1 1017608
21:00−2sw51196100 0.2 1014573
2 march, tue
tue200:000wsw61297100 1.5 1010757
03:00+1w61398100 2.1 1007752
06:000wnw61197100 1.2 1004810
09:000nw61290100 1.6 10051048
12:00+1nw6118796 0.3 10051164
15:00−1nw6119298 0.4 10061069
18:00−1nw51292100 0.4 1006902
21:00−2nw6139298 0.5 1008689
3 march, wed
wed300:00−2nw5119395 0.1 1009747
03:00−3nw5119398 0.3 1010766
06:00−5nw4109396 0.1 1011363
09:00−4nw6129198 0.4 1012803
12:00−2nw6985100 0.2 10131057
15:00−2nw5990100 0.3 1013795
18:00−3nw41094100 0.3 1013675
21:00−5nw4118999 0.4 1015416